Regional Weather Roundup
Issued by NWS

Home | Current Version | Previous Version | Text Only | Print | Product List | Glossary On
Versions: 1 2 3 4 5 6 7 8 9 10 11 12 13 14 15 16 17 18 19 20 21 22 23 24 25 26 27
000
ASUS42 KFFC 251503
RWRGA
WEATHER ROUNDUP FOR GEORGIA
NATIONAL WEATHER SERVICE PEACHTREE CITY GA
1100 AM EDT SAT OCT 25 2014

NOTE: "FAIR" INDICATES FEW OR NO CLOUDS BELOW 12,000 FEET WITH NO
SIGNIFICANT WEATHER AND/OR OBSTRUCTIONS TO VISIBILITY.

* = USE WITH CAUTION. THE STATIONS MARKED WITH AN ASTERISK MAY NOT
REPORT WEATHER SUCH AS PRECIPITATION, FOG, OR THUNDER AND ARE NOT
QUALITY CONTROLLED BY NWS.

THE REMARK "TC" DENOTES TEMPERATURE READING IN DEGREES CELSIUS.

GAZ001>058-251600-
NORTH GEORGIA

CITY           SKY/WX    TMP DP  RH WIND       PRES   REMARKS
ATLANTA        SUNNY     63  43  48 NW6       30.08S
ATHENS         SUNNY     63  47  55 CALM      30.07S
CHAMBLEE       SUNNY     63  43  48 N3        30.08S
PEACHTREE CITY SUNNY     63  44  50 N7        30.09S
ROME           SUNNY     62  46  55 NW3       30.10S
WEST ATLANTA   SUNNY     63  45  51 NW3       30.09R
GAINESVILLE    SUNNY     61  41  47 CALM      30.09R
CARTERSVILLE   SUNNY     57  44  62 VRB3      30.12R


CITY           SKY/WX    TMP DP  RH WIND       PRES   REMARKS
DALTON*        SUNNY     59  46  63 N6        30.11R
LAWRENCEVILLE* SUNNY     63  43  48 CALM      30.07
MARIETTA       MOSUNNY   63  43  48 NW9       30.09R
KENNESAW*      SUNNY     57  43  58 W5        30.11S
$$

GAZ059>098-102>109-251600-
CENTRAL GEORGIA

CITY           SKY/WX    TMP DP  RH WIND       PRES   REMARKS
AUGUSTA-BUSH   SUNNY     64  45  49 NW3       30.06S
AUGUSTA-DANIEL SUNNY     63  45  51 N7        30.07R
COLUMBUS       SUNNY     65  43  44 N7        30.08F
MACON          SUNNY     60  49  66 CALM      30.06F
ROBINS AFB     SUNNY     60  50  69 NE3       30.06F


CITY           SKY/WX    TMP DP  RH WIND       PRES   REMARKS
LAGRANGE*      SUNNY     66  49  55 N3        30.09S
SYLVANIA*      SUNNY     71  57  61 CALM      30.05F
MILLEDGEVILLE* SUNNY     59  54  82 CALM      30.06F
$$

GAZ099>101-110>166-251600-
SOUTH GEORGIA

CITY           SKY/WX    TMP DP  RH WIND       PRES   REMARKS
SAVANNAH       SUNNY     69  49  48 N3        30.04F
VALDOSTA       SUNNY     69  47  45 CALM      30.05S
ALMA           SUNNY     68  50  52 NW3       30.04S
ST SIMONS      SUNNY     66  52  60 NW9       30.03S
FT STEWART     SUNNY     69  50  50 CALM      30.03S
ALBANY         SUNNY     65  47  52 N5        30.09S
HUNTER AFB     SUNNY     67  50  53 VRB5      30.02S
MOODY AFB      SUNNY     68  47  47 NW6       30.05S
BRUNSWICK      SUNNY     68  54  60 NW5       30.04F


CITY           SKY/WX    TMP DP  RH WIND       PRES   REMARKS
BAINBRIDGE*    SUNNY     68  52  56 N5        30.08R
MOULTRIE*      SUNNY     64  52  63 CALM      30.07S
VIDALIA*       SUNNY     66  52  59 N5        30.05S
WAYCROSS*      SUNNY     71  55  58 N5        30.04S
DOUGLAS*       SUNNY     68  50  52 NW3       30.06S
$$



USA.gov is the U.S. government's official web portal to all federal, state and local government web resources and services.